DB0BGL Weather Reports


Display with metric or nautical units.
time (UTC)temp
F
wind
direction
speed
MPH
gust
MPH
rain 1hr
in
rain 24hr
in
rain mn
in
humidity
%
barometer
mb
20260830160928 71 85 0.0 0.0 0.00 0.00 0.00 52
20260830155927 75 85 0.0 0.0 0.00 0.00 0.00 45
20260830154926 77 85 0.0 0.0 0.00 0.00 0.00 43
20260830153926 77 85 0.0 0.0 0.00 0.00 0.00 43
20260830152925 77 85 0.0 0.0 0.00 0.00 0.00 43
20260830151925 77 85 0.0 0.0 0.00 0.00 0.00 43
20260830150924 77 85 0.0 0.0 0.00 0.00 0.00 41
20260830145924 78 85 0.0 0.0 0.00 0.00 0.00 41
20260830145135 79 85 0.0 0.0 0.00 0.00 0.00 40
20260830144923 79 85 0.0 0.0 0.00 0.00 0.00 40
20260830143922 78 85 0.0 0.0 0.00 0.00 0.00 41
20260830142922 80 85 0.0 0.0 0.00 0.00 0.00 39
20260830141921 81 105 0.0 4.0 0.00 0.00 0.00 36
20260830140921 81 102 0.0 3.0 0.00 0.00 0.00 38
20260830135920 82 116 0.0 0.0 0.00 0.00 0.00 36
20260830134919 82 116 0.0 0.0 0.00 0.00 0.00 36
20260830133920 83 116 0.0 0.0 0.00 0.00 0.00 35
20260830132918 82 116 0.0 0.0 0.00 0.00 0.00 37
20260830131918 80 116 0.0 0.0 0.00 0.00 0.00 38
20260830130917 80 116 0.0 0.0 0.00 0.00 0.00 39
20260830125918 79 116 0.0 0.0 0.00 0.00 0.00 40
20260830124916 78 116 0.0 0.0 0.00 0.00 0.00 40
20260830123915 76 116 0.0 0.0 0.00 0.00 0.00 44
20260830122916 72 116 0.0 0.0 0.00 0.00 0.00 49
20260830121914 71 116 0.0 0.0 0.00 0.00 0.00 51
20260830120914 72 180 0.0 0.0 0.00 0.00 0.00 100
20260830120006 73 180 0.0 0.0 0.00 0.00 0.00 47
20260830115913 73 180 0.0 0.0 0.00 0.00 0.00 47
20260830052409 55 113 0.0 0.0 0.00 0.00 0.00 77
20260830051409 52 94 0.0 0.0 0.00 0.00 0.00 100
20260830050408 50 94 0.0 0.0 0.00 0.00 0.00 89
20260830045407 49 94 0.0 3.0 0.00 0.00 0.00 92